Tracking 19242 objects as of 17-Aug-2018
HD Live streaming from Space Station
objects crossing your sky now

ZDPS 2B

Track ZDPS 2B now!
10-day predictions
ZDPS 2B is classified as:


NORAD ID: 40902
Int'l Code: 2015-049D
Perigee: 512.6 km
Apogee: 531.6 km
Inclination: 97.4 °
Period: 94.9 minutes
Semi major axis: 6893 km
RCS: Unknown
Launch date: September 19, 2015
Source: People's Republic of China (PRC)
Launch site: Taiyaun Space Center, China (TSC)
aabbcc
Your satellite tracking list
Your tracking list is empty




NASA's NSSDC Master Catalog

Two Line Element Set (TLE):
1 40902U 15049D   18228.80427268  .00000641  00000-0  35805-4 0  9998
2 40902  97.4497 232.1336 0013734 176.9373 183.1946 15.16981670160835
Source of the keplerian elements: AFSPC